KA5FVT Weather Reports


Display with metric or nautical units.
time (UTC)temp
F
wind
direction
speed
MPH
gust
MPH
rain 1hr
in
rain 24hr
in
rain mn
in
humidity
%
barometer
mb
20260901164455 86 297 0.0 0.0 0.00 0.00 0.00 73 1015.8
20260901163955 86 297 0.0 1.0 0.00 0.00 0.00 73 1015.8
20260901163455 86 297 0.0 0.0 0.00 0.00 0.00 73 1015.7
20260901162955 86 297 0.0 2.0 0.00 0.00 0.00 73 1015.9
20260901162456 86 297 1.0 1.0 0.00 0.00 0.00 74 1015.9
20260901161955 86 297 1.0 2.0 0.00 0.00 0.00 74 1015.7
20260901161455 86 297 0.0 3.0 0.00 0.00 0.00 75 1015.5
20260901160955 86 297 2.0 3.0 0.00 0.00 0.00 73 1015.4
20260901160458 86 279 0.0 2.0 0.00 0.00 0.00 73 1015.4
20260901155955 86 279 1.0 3.0 0.00 0.00 0.00 73 1015.6
20260901155459 86 279 0.0 1.0 0.00 0.00 0.00 73 1015.4
20260901154955 86 279 0.0 3.0 0.00 0.00 0.00 73 1015.4
20260901154455 86 250 1.0 2.0 0.00 0.00 0.00 73 1015.5
20260901153958 86 250 0.0 2.0 0.00 0.00 0.00 74 1015.6
20260901153455 86 250 1.0 4.0 0.00 0.00 0.00 76 1015.5
20260901152955 86 203 0.0 4.0 0.00 0.00 0.00 75 1015.4
20260901152456 86 312 0.0 1.0 0.00 0.00 0.00 76 1015.6
20260901151955 86 312 0.0 2.0 0.00 0.00 0.00 77 1015.6
20260901151455 85 312 0.0 2.0 0.00 0.00 0.00 76 1015.6
20260901150958 85 312 1.0 2.0 0.00 0.00 0.00 77 1015.6
20260901150456 85 309 0.0 1.0 0.00 0.00 0.00 78 1015.7
20260901145956 85 309 0.0 2.0 0.00 0.00 0.00 77 1015.6
20260901145455 85 309 1.0 3.0 0.00 0.00 0.00 77 1015.6
20260901144955 85 333 1.0 2.0 0.00 0.00 0.00 77 1015.7
20260901144458 85 333 0.0 2.0 0.00 0.00 0.00 77 1015.7
20260901143958 85 333 0.0 2.0 0.00 0.00 0.00 78 1015.7
20260901143455 84 333 0.0 3.0 0.00 0.00 0.00 78 1015.6
20260901142955 84 303 1.0 2.0 0.00 0.00 0.00 78 1015.7
20260901142456 84 303 0.0 2.0 0.00 0.00 0.00 79 1015.8
20260901141958 84 303 0.0 3.0 0.00 0.00 0.00 79 1015.6
20260901141455 83 177 0.0 2.0 0.00 0.00 0.00 82 1015.8
20260901140955 83 177 0.0 2.0 0.00 0.00 0.00 82 1015.8
20260901140455 82 177 0.0 2.0 0.00 0.00 0.00 83 1015.8
20260901135955 82 173 0.0 0.0 0.00 0.00 0.00 84 1015.8
20260901135456 82 173 0.0 0.0 0.00 0.00 0.00 84 1015.7
20260901134955 81 173 0.0 0.0 0.00 0.00 0.00 85 1016.0
20260901134455 81 173 0.0 1.0 0.00 0.00 0.00 87 1016.0
20260901133955 81 173 0.0 0.0 0.00 0.00 0.00 87 1015.9
20260901133456 80 173 0.0 1.0 0.00 0.00 0.00 87 1015.9
20260901132956 80 173 0.0 0.0 0.00 0.00 0.00 89 1015.8
20260901132455 80 173 0.0 0.0 0.00 0.00 0.00 89 1015.6
20260901131955 80 173 0.0 0.0 0.00 0.00 0.00 89 1015.6
20260901131455 80 173 0.0 0.0 0.00 0.00 0.00 89 1015.4
20260901130955 80 173 0.0 0.0 0.00 0.00 0.00 89 1015.3
20260901130455 80 173 0.0 0.0 0.00 0.00 0.00 88 1015.2
20260901125958 80 173 0.0 0.0 0.00 0.00 0.00 89 1015.2
20260901125456 79 173 0.0 0.0 0.00 0.00 0.00 89 1015.2
20260901124955 79 173 0.0 0.0 0.00 0.00 0.00 89 1015.2
20260901124455 79 173 0.0 0.0 0.00 0.00 0.00 89 1015.2
20260901123955 79 173 0.0 0.0 0.00 0.00 0.00 89 1015.1
20260901123455 79 173 0.0 0.0 0.00 0.00 0.00 89 1015.0
20260901122955 79 173 0.0 0.0 0.00 0.00 0.00 89 1015.1
20260901122456 79 173 0.0 0.0 0.00 0.00 0.00 89 1014.9
20260901121955 79 173 0.0 0.0 0.00 0.00 0.00 89 1014.9
20260901121455 79 173 0.0 0.0 0.00 0.00 0.00 89 1014.9
20260901120955 79 173 0.0 0.0 0.00 0.00 0.00 89 1014.8
20260901120455 79 173 0.0 0.0 0.00 0.00 0.00 89 1014.8
20260901115955 79 173 0.0 0.0 0.00 0.00 0.00 89 1014.8
20260901115456 79 173 0.0 0.0 0.00 0.00 0.00 89 1014.7
20260901114955 79 173 0.0 0.0 0.00 0.00 0.00 89 1014.8
20260901114455 80 173 0.0 0.0 0.00 0.00 0.00 89 1014.8
20260901113958 80 173 0.0 0.0 0.00 0.00 0.00 89 1014.7
20260901113455 80 173 0.0 0.0 0.00 0.00 0.00 89 1014.7
20260901112955 80 173 0.0 0.0 0.00 0.00 0.00 89 1014.7
20260901112459 80 173 0.0 0.0 0.00 0.00 0.00 89 1014.8
20260901111955 80 173 0.0 0.0 0.00 0.00 0.00 89 1014.7
20260901111455 80 173 0.0 0.0 0.00 0.00 0.00 89 1014.8
20260901110955 80 173 0.0 0.0 0.00 0.00 0.00 89 1014.8
20260901110458 80 173 0.0 0.0 0.00 0.00 0.00 88 1014.7
20260901105955 80 173 0.0 0.0 0.00 0.00 0.00 88 1014.6
20260901105458 80 173 0.0 0.0 0.00 0.00 0.00 88 1014.5
20260901104959 80 173 0.0 0.0 0.00 0.00 0.00 89 1014.6
20260901104455 80 173 0.0 0.0 0.00 0.00 0.00 88 1014.7
20260901103955 80 173 0.0 0.0 0.00 0.00 0.00 88 1014.5
20260901103455 80 173 0.0 0.0 0.00 0.00 0.00 88 1014.4
20260901102956 80 173 0.0 0.0 0.00 0.00 0.00 88 1014.4
20260901102455 80 173 0.0 0.0 0.00 0.00 0.00 88 1014.4
20260901101958 80 173 0.0 0.0 0.00 0.00 0.00 88 1014.4
20260901101456 80 173 0.0 0.0 0.00 0.00 0.00 88 1014.3
20260901100958 80 173 0.0 0.0 0.00 0.00 0.00 87 1014.5
20260901100455 80 173 0.0 0.0 0.00 0.00 0.00 87 1014.4
20260901095958 80 173 0.0 0.0 0.00 0.00 0.00 87 1014.5
20260901095455 80 173 0.0 0.0 0.00 0.00 0.00 87 1014.4
20260901094955 80 173 0.0 0.0 0.00 0.00 0.00 87 1014.5
20260901094455 81 173 0.0 0.0 0.00 0.00 0.00 87 1014.5
20260901093956 81 173 0.0 0.0 0.00 0.00 0.00 86 1014.5
20260901093455 81 173 0.0 0.0 0.00 0.00 0.00 86 1014.5
20260901092955 81 173 0.0 0.0 0.00 0.00 0.00 86 1014.6
20260901092455 81 173 0.0 0.0 0.00 0.00 0.00 86 1014.5
20260901091955 81 173 0.0 0.0 0.00 0.00 0.00 86 1014.6
20260901091455 81 173 0.0 0.0 0.00 0.00 0.00 85 1014.6
20260901090955 81 173 0.0 0.0 0.00 0.00 0.00 85 1014.5
20260901090456 81 173 0.0 0.0 0.00 0.00 0.00 85 1014.5
20260901085955 81 173 0.0 0.0 0.00 0.00 0.00 85 1014.4
20260901085455 81 173 0.0 0.0 0.00 0.00 0.00 85 1014.5
20260901084955 81 173 0.0 0.0 0.00 0.00 0.00 85 1014.5
20260901084455 81 173 0.0 0.0 0.00 0.00 0.00 85 1014.6
20260901083955 81 173 0.0 0.0 0.00 0.00 0.00 86 1014.7
20260901083455 81 173 0.0 0.0 0.00 0.00 0.00 86 1014.7
20260901082955 81 173 0.0 0.0 0.00 0.00 0.00 85 1014.8
20260901082458 81 173 0.0 0.0 0.00 0.00 0.00 85 1014.8
20260901081955 81 173 0.0 0.0 0.00 0.00 0.00 85 1014.7
20260901081455 81 173 0.0 0.0 0.00 0.00 0.00 85 1014.9
20260901080955 81 173 0.0 0.0 0.00 0.00 0.00 84 1014.8
20260901080455 82 173 0.0 0.0 0.00 0.00 0.00 84 1014.8
20260901075955 82 173 0.0 0.0 0.00 0.00 0.00 84 1014.9
20260901075456 82 173 0.0 0.0 0.00 0.00 0.00 84 1014.9
20260901074955 82 173 0.0 0.0 0.00 0.00 0.00 83 1014.8
20260901074455 82 173 0.0 0.0 0.00 0.00 0.00 84 1014.8
20260901073955 82 173 0.0 0.0 0.00 0.00 0.00 84 1014.7
20260901073455 82 173 0.0 0.0 0.00 0.00 0.00 84 1014.9
20260901072955 82 173 0.0 0.0 0.00 0.00 0.00 84 1015.0
20260901072455 82 173 0.0 0.0 0.00 0.00 0.00 83 1014.9
20260901071956 82 173 0.0 0.0 0.00 0.00 0.00 83 1014.9
20260901071455 82 173 0.0 0.0 0.00 0.00 0.00 82 1014.8
20260901070955 82 173 0.0 0.0 0.00 0.00 0.00 82 1014.7
20260901070455 82 173 0.0 0.0 0.00 0.00 0.00 82 1014.9
20260901065955 82 173 0.0 0.0 0.00 0.00 0.00 82 1014.9
20260901065455 83 173 0.0 0.0 0.00 0.00 0.00 82 1014.9
20260901064958 83 173 0.0 0.0 0.00 0.00 0.00 81 1015.0
20260901064455 83 173 0.0 0.0 0.00 0.00 0.00 81 1015.1
20260901063955 83 173 0.0 0.0 0.00 0.00 0.00 81 1015.1
20260901063455 83 173 0.0 0.0 0.00 0.00 0.00 81 1014.9
20260901062955 83 173 0.0 0.0 0.00 0.00 0.00 81 1014.9
20260901062455 83 173 0.0 0.0 0.00 0.00 0.00 80 1014.9
20260901061955 83 173 0.0 0.0 0.00 0.00 0.00 80 1015.1
20260901061455 83 173 0.0 0.0 0.00 0.00 0.00 81 1015.1
20260901060956 83 173 0.0 0.0 0.00 0.00 0.00 80 1015.0
20260901060459 83 173 0.0 0.0 0.00 0.00 0.00 80 1015.2
20260901055958 83 173 0.0 0.0 0.00 0.00 0.00 80 1015.2
20260901055458 83 173 0.0 0.0 0.00 0.00 0.00 80 1015.1
20260901054958 84 173 0.0 0.0 0.00 0.00 0.00 80 1014.9
20260901054455 84 173 0.0 0.0 0.00 0.00 0.00 79 1015.1
20260901053955 84 173 0.0 0.0 0.00 0.00 0.00 79 1015.0
20260901053456 84 173 0.0 0.0 0.00 0.00 0.00 79 1015.0
20260901052958 84 173 0.0 0.0 0.00 0.00 0.00 78 1015.0
20260901052455 84 173 0.0 0.0 0.00 0.00 0.00 78 1014.9
20260901051955 84 173 0.0 0.0 0.00 0.00 0.00 77 1014.8
20260901051456 84 173 0.0 0.0 0.00 0.00 0.00 77 1014.9
20260901050955 84 173 0.0 0.0 0.00 0.00 0.00 77 1015.0
20260901050455 84 173 0.0 0.0 0.00 0.00 0.00 77 1014.9
20260901045959 84 173 0.0 0.0 0.00 0.00 0.00 76 1014.8
20260901045458 84 173 0.0 0.0 0.00 0.00 0.00 77 1014.7
20260901044955 84 173 0.0 0.0 0.00 0.00 0.00 76 1014.7
20260901044455 84 173 0.0 0.0 0.00 0.00 0.00 76 1014.8
20260901043955 85 173 0.0 0.0 0.00 0.00 0.00 75 1014.8
20260901043455 85 173 0.0 0.0 0.00 0.00 0.00 75 1014.7
20260901042958 85 173 0.0 0.0 0.00 0.00 0.00 75 1014.8
20260901042455 85 173 0.0 0.0 0.00 0.00 0.00 75 1014.7
20260901041955 85 173 0.0 0.0 0.00 0.00 0.00 74 1014.7
20260901041455 85 173 0.0 0.0 0.00 0.00 0.00 75 1014.8
20260901040955 85 173 0.0 0.0 0.00 0.00 0.00 75 1014.8
20260901040455 85 173 0.0 0.0 0.00 0.00 0.00 75 1014.6
20260901035958 85 173 0.0 0.0 0.00 0.00 0.00 75 1014.5
20260901035455 85 173 0.0 0.0 0.00 0.00 0.00 75 1014.6
20260901034955 85 173 0.0 0.0 0.00 0.00 0.00 75 1014.5
20260901034455 85 173 0.0 0.0 0.00 0.00 0.00 75 1014.4
20260901033955 85 173 0.0 0.0 0.00 0.00 0.00 75 1014.2
20260901033455 85 173 0.0 0.0 0.00 0.00 0.00 74 1014.4
20260901032955 85 173 0.0 0.0 0.00 0.00 0.00 74 1014.3
20260901032458 85 173 0.0 0.0 0.00 0.00 0.00 74 1014.2
20260901031955 85 173 0.0 0.0 0.00 0.00 0.00 74 1014.1
20260901031456 85 173 0.0 0.0 0.00 0.00 0.00 74 1014.1
20260901030955 85 173 0.0 0.0 0.00 0.00 0.00 73 1014.0
20260901030455 86 173 0.0 0.0 0.00 0.00 0.00 73 1014.1
20260901025955 86 173 0.0 0.0 0.00 0.00 0.00 73 1013.8
20260901025455 86 173 0.0 0.0 0.00 0.00 0.00 72 1013.7
20260901024958 86 173 0.0 0.0 0.00 0.00 0.00 72 1013.7
20260901024455 86 173 0.0 0.0 0.00 0.00 0.00 72 1013.6
20260901023955 86 173 0.0 0.0 0.00 0.00 0.00 72 1013.7
20260901023455 86 173 0.0 0.0 0.00 0.00 0.00 72 1013.6
20260901022955 86 173 0.0 0.0 0.00 0.00 0.00 71 1013.5
20260901022455 86 173 0.0 0.0 0.00 0.00 0.00 70 1013.4
20260901021955 87 173 0.0 0.0 0.00 0.00 0.00 71 1013.2
20260901021455 87 173 0.0 0.0 0.00 0.00 0.00 71 1013.4
20260901020958 87 173 0.0 0.0 0.00 0.00 0.00 70 1013.3
20260901020455 87 173 0.0 0.0 0.00 0.00 0.00 70 1013.1
20260901015958 87 173 0.0 0.0 0.00 0.00 0.00 69 1013.2
20260901015455 87 173 0.0 0.0 0.00 0.00 0.00 69 1013.2
20260901014955 88 173 0.0 0.0 0.00 0.00 0.00 69 1013.1
20260901014455 88 173 0.0 0.0 0.00 0.00 0.00 68 1013.2
20260901013955 88 173 0.0 0.0 0.00 0.00 0.00 68 1013.2
20260901013455 88 173 0.0 0.0 0.00 0.00 0.00 68 1013.1
20260901012956 88 173 0.0 0.0 0.00 0.00 0.00 68 1013.1
20260901012455 88 173 0.0 0.0 0.00 0.00 0.00 67 1013.1
20260901011955 89 173 0.0 0.0 0.00 0.00 0.00 66 1013.2
20260901011458 89 173 0.0 0.0 0.00 0.00 0.00 66 1013.0
20260901010955 89 173 0.0 0.0 0.00 0.00 0.00 66 1013.0
20260901010455 89 173 0.0 0.0 0.00 0.00 0.00 65 1013.0
20260901005958 89 173 0.0 0.0 0.00 0.00 0.00 65 1013.1
20260901005456 90 173 0.0 0.0 0.00 0.00 0.00 64 1013.1
20260901004955 90 173 0.0 0.0 0.00 0.00 0.00 64 1013.1
20260901004455 90 173 0.0 0.0 0.00 0.00 0.00 64 1013.2
20260901003955 90 173 0.0 0.0 0.00 0.00 0.00 63 1013.1
20260901003455 90 173 0.0 0.0 0.00 0.00 0.00 63 1013.0
20260901002955 91 173 0.0 0.0 0.00 0.00 0.00 62 1013.0
20260901002458 91 173 0.0 0.0 0.00 0.00 0.00 61 1013.1
20260901002000 91 173 0.0 0.0 0.00 0.00 0.00 61 1013.1
20260901001455 92 173 0.0 1.0 0.00 0.00 0.00 60 1013.0
20260901000955 92 173 0.0 0.0 0.00 0.00 0.00 59 1013.1
20260901000455 92 173 0.0 0.0 0.00 0.00 0.00 58 1013.1
20260831235955 93 173 0.0 0.0 0.00 0.00 0.00 60 1013.1
20260831235455 93 173 0.0 0.0 0.00 0.00 0.00 59 1013.1
20260831234955 93 173 0.0 0.0 0.00 0.00 0.00 59 1013.2
20260831234456 93 173 0.0 0.0 0.00 0.00 0.00 58 1013.2
20260831233955 93 173 0.0 1.0 0.00 0.00 0.00 58 1013.4
20260831233455 94 173 0.0 1.0 0.00 0.00 0.00 57 1013.4
20260831232955 94 173 0.0 0.0 0.00 0.00 0.00 56 1013.4
20260831232455 94 173 0.0 1.0 0.00 0.00 0.00 56 1013.3
20260831231955 94 173 1.0 1.0 0.00 0.00 0.00 57 1013.3
20260831231455 93 173 0.0 1.0 0.00 0.00 0.00 58 1013.3
20260831230956 93 173 0.0 1.0 0.00 0.00 0.00 57 1013.2
20260831230455 93 173 1.0 1.0 0.00 0.00 0.00 58 1013.2
20260831225955 93 173 0.0 2.0 0.00 0.00 0.00 57 1013.2
20260831225458 93 157 0.0 1.0 0.00 0.00 0.00 56 1013.1
20260831224955 93 157 1.0 2.0 0.00 0.00 0.00 57 1013.3
20260831224455 93 139 0.0 2.0 0.00 0.00 0.00 57 1013.2
20260831223955 92 139 1.0 2.0 0.00 0.00 0.00 57 1013.2
20260831223459 92 127 0.0 2.0 0.00 0.00 0.00 58 1013.2
20260831222955 92 124 0.0 1.0 0.00 0.00 0.00 58 1013.2
20260831222455 92 120 0.0 2.0 0.00 0.00 0.00 58 1013.3
20260831221955 92 113 1.0 1.0 0.00 0.00 0.00 58 1013.3
20260831221455 92 113 0.0 1.0 0.00 0.00 0.00 59 1013.3
20260831220955 92 113 0.0 1.0 0.00 0.00 0.00 59 1013.4
20260831220455 92 146 1.0 2.0 0.00 0.00 0.00 59 1013.4
20260831215956 92 128 0.0 2.0 0.00 0.00 0.00 59 1013.4
20260831215455 92 131 0.0 2.0 0.00 0.00 0.00 59 1013.4
20260831214955 92 81 0.0 1.0 0.00 0.00 0.00 59 1013.4
20260831214455 92 78 0.0 2.0 0.00 0.00 0.00 59 1013.4
20260831213955 92 163 0.0 2.0 0.00 0.00 0.00 59 1013.4
20260831213458 92 167 0.0 2.0 0.00 0.00 0.00 59 1013.5
20260831212956 93 167 1.0 2.0 0.00 0.00 0.00 59 1013.7
20260831212455 93 165 1.0 1.0 0.00 0.00 0.00 59 1013.7
20260831211955 93 165 1.0 2.0 0.00 0.00 0.00 59 1013.8
20260831211455 93 163 0.0 2.0 0.00 0.00 0.00 60 1013.7
20260831210955 94 163 0.0 2.0 0.00 0.00 0.00 60 1013.8
20260831210455 94 163 1.0 2.0 0.00 0.00 0.00 58 1013.8
20260831205955 94 163 0.0 2.0 0.00 0.00 0.00 58 1013.8
20260831205458 95 164 1.0 2.0 0.00 0.00 0.00 57 1013.8
20260831204955 95 148 0.0 1.0 0.00 0.00 0.00 58 1013.9
20260831204458 96 148 1.0 2.0 0.00 0.00 0.00 56 1013.9
20260831203955 96 148 0.0 4.0 0.00 0.00 0.00 54 1014.0
20260831203455 97 109 1.0 2.0 0.00 0.00 0.00 52 1014.0
20260831202955 97 150 1.0 1.0 0.00 0.00 0.00 51 1014.0
20260831202455 97 150 0.0 1.0 0.00 0.00 0.00 51 1014.1
20260831201955 97 150 0.0 1.0 0.00 0.00 0.00 50 1014.2
20260831201455 97 150 0.0 2.0 0.00 0.00 0.00 51 1014.2
20260831200955 97 150 1.0 2.0 0.00 0.00 0.00 49 1014.2
20260831200458 97 140 1.0 2.0 0.00 0.00 0.00 49 1014.2
20260831195955 97 140 1.0 1.0 0.00 0.00 0.00 49 1014.2
20260831195455 97 140 1.0 2.0 0.00 0.00 0.00 49 1014.3
20260831194958 97 140 1.0 4.0 0.00 0.00 0.00 49 1014.4
20260831194455 97 178 2.0 4.0 0.00 0.00 0.00 49 1014.5
20260831193955 97 175 1.0 5.0 0.00 0.00 0.00 49 1014.5
20260831193455 97 244 0.0 2.0 0.00 0.00 0.00 52 1014.6
20260831192955 97 244 0.0 2.0 0.00 0.00 0.00 49 1014.6
20260831192455 96 240 0.0 2.0 0.00 0.00 0.00 51 1014.7
20260831191955 96 242 0.0 2.0 0.00 0.00 0.00 50 1014.8
20260831191455 96 240 1.0 2.0 0.00 0.00 0.00 51 1014.8
20260831190955 96 244 1.0 2.0 0.00 0.00 0.00 52 1014.9
20260831190458 95 168 1.0 1.0 0.00 0.00 0.00 53 1015.1
20260831185955 95 166 1.0 5.0 0.00 0.00 0.00 53 1015.2
20260831185455 96 136 2.0 4.0 0.00 0.00 0.00 52 1015.2
20260831184958 96 194 1.0 2.0 0.00 0.00 0.00 54 1015.3
20260831184455 95 194 1.0 2.0 0.00 0.00 0.00 54 1015.1
20260831183956 95 194 0.0 2.0 0.00 0.00 0.00 59 1015.3
20260831183455 95 194 1.0 3.0 0.00 0.00 0.00 54 1015.4
20260831182958 96 236 2.0 2.0 0.00 0.00 0.00 53 1015.5
20260831182455 96 236 0.0 3.0 0.00 0.00 0.00 54 1015.6
20260831181955 96 236 0.0 3.0 0.00 0.00 0.00 54 1015.5
20260831181458 96 236 2.0 3.0 0.00 0.00 0.00 51 1015.5
20260831180955 96 246 1.0 4.0 0.00 0.00 0.00 51 1015.7
20260831180455 96 163 0.0 5.0 0.00 0.00 0.00 53 1015.8
20260831175955 96 159 1.0 2.0 0.00 0.00 0.00 57 1015.9
20260831175458 96 163 0.0 2.0 0.00 0.00 0.00 56 1015.8
20260831174955 95 184 0.0 2.0 0.00 0.00 0.00 57 1015.8
20260831174455 95 185 2.0 2.0 0.00 0.00 0.00 60 1016.0
20260831173955 94 195 0.0 2.0 0.00 0.00 0.00 58 1016.0
20260831173455 94 185 0.0 1.0 0.00 0.00 0.00 59 1016.1
20260831172956 94 184 0.0 2.0 0.00 0.00 0.00 58 1016.1
20260831172455 94 188 0.0 2.0 0.00 0.00 0.00 58 1016.2
20260831171955 93 163 1.0 4.0 0.00 0.00 0.00 57 1016.2
20260831171455 93 155 0.0 2.0 0.00 0.00 0.00 57 1016.2
20260831170958 93 163 2.0 4.0 0.00 0.00 0.00 60 1016.3
20260831170458 93 185 2.0 2.0 0.00 0.00 0.00 61 1016.2
20260831165955 92 182 0.0 2.0 0.00 0.00 0.00 62 1016.3
20260831165458 92 182 0.0 2.0 0.00 0.00 0.00 64 1016.4
20260831164955 92 163 2.0 7.0 0.00 0.00 0.00 61 1016.5